Tracking 25656 objects as of 21-May-2022
HD Live streaming from Space Station
objects crossing your sky now

STARLINK-3389

Track STARLINK-3389 now!
10-day predictions
STARLINK-3389 is classified as:


NORAD ID: 51124
Int'l Code: 2022-005W
Perigee: 546.0 km
Apogee: 548.4 km
Inclination: 53.2 °
Period: 95.4 minutes
Semi major axis: 6918 km
RCS: Unknown
Launch date: January 19, 2022
Source: United States (US)
Launch site: AIR FORCE EASTERN TEST RANGE (AFETR)
aabbcc
Your satellite tracking list
Your tracking list is empty




NASA's NSSDC Master Catalog

Two Line Element Set (TLE):
1 51124U 22005W   22141.58335648  .00105027  00000-0  65360-2 0  9991
2 51124  53.2180  50.5628 0001733  51.8572  34.5013 15.08749706 20300
Source of the keplerian elements: AFSPC